owner,sensor,date,latitude,longitude,vertical_datum,wind_speed,wind_to_direction,wind_speed_of_gust,qcFlag 
TABS,ioos:station:wmo:42046:1,2008-12-01T00:00:00Z,27.8903,-94.0367,4.0,9.937575157,301.754737,13.38,'11111222,11111222,11111222' 
TABS,ioos:station:wmo:42046:1,2008-12-01T00:30:00Z,27.8903,-94.0367,4.0,10.03625428,297.2798709,14.3,'11111222,11111222,11111222' 
TABS,ioos:station:wmo:42046:1,2008-12-01T01:00:00Z,27.8903,-94.0367,4.0,11.06176297,300.7149604,15.84,'11111222,11111222,11111222' 
TABS,ioos:station:wmo:42046:1,2008-12-01T01:30:00Z,27.8903,-94.0367,4.0,10.34527912,303.9664803,13.43,'11111222,11111222,11111222' 
TABS,ioos:station:wmo:42046:1,2008-12-01T02:00:00Z,27.8903,-94.0367,4.0,10.53178997,304.3991691,13.67,'11111222,11111222,11111222' 
TABS,ioos:station:wmo:42046:1,2008-12-01T02:30:00Z,27.8903,-94.0367,4.0,10.04496391,291.1234605,13.3,'11111222,11111222,11111222' 
TABS,ioos:station:wmo:42046:1,2008-12-01T03:00:00Z,27.8903,-94.0367,4.0,9.539523049,299.6554154,12.46,'11111222,11111222,11111222' 
TABS,ioos:station:wmo:42046:1,2008-12-01T03:30:00Z,27.8903,-94.0367,4.0,9.382307818,307.3339314,12.8,'11111222,11111222,11111222' 
TABS,ioos:station:wmo:42046:1,2008-12-01T04:00:00Z,27.8903,-94.0367,4.0,8.817783168,318.263822,11.63,'11111222,11111222,11111222' 
TABS,ioos:station:wmo:42046:1,2008-12-01T04:30:00Z,27.8903,-94.0367,4.0,8.056357738,311.3263247,10.46,'11111222,11111222,11111222' 
TABS,ioos:station:wmo:42046:1,2008-12-01T05:00:00Z,27.8903,-94.0367,4.0,7.306243905,327.1798272,10.12,'11111222,11111222,11111222' 
TABS,ioos:station:wmo:42046:1,2008-12-01T05:30:00Z,27.8903,-94.0367,4.0,7.018212023,318.1765153,10.33,'11111222,11111222,11111222' 
TABS,ioos:station:wmo:42046:1,2008-12-01T06:00:00Z,27.8903,-94.0367,4.0,7.709033662,316.1561636,10.06,'11111222,11111222,11111222' 
TABS,ioos:station:wmo:42046:1,2008-12-01T06:30:00Z,27.8903,-94.0367,4.0,8.255289214,310.5786157,10.99,'11111222,11111222,11111222' 
TABS,ioos:station:wmo:42046:1,2008-12-01T07:00:00Z,27.8903,-94.0367,4.0,8.747142391,315.4167514,11.07,'11111222,11111222,11111222' 
TABS,ioos:station:wmo:42046:1,2008-12-01T07:30:00Z,27.8903,-94.0367,4.0,8.14206362,317.8871418,10.49,'11111222,11111222,11111222' 
TABS,ioos:station:wmo:42046:1,2008-12-01T08:00:00Z,27.8903,-94.0367,4.0,8.089109963,307.8189848,11.58,'11111222,11111222,11111222' 
TABS,ioos:station:wmo:42046:1,2008-12-01T08:30:00Z,27.8903,-94.0367,4.0,7.368398741,308.331832,10.07,'11111222,11111222,11111222' 
TABS,ioos:station:wmo:42046:1,2008-12-01T09:00:00Z,27.8903,-94.0367,4.0,8.45683747,309.7707797,11.45,'11111222,11111222,11111222' 
TABS,ioos:station:wmo:42046:1,2008-12-01T09:30:00Z,27.8903,-94.0367,4.0,9.804182781,316.5703776,12.91,'11111222,11111222,11111222' 
TABS,ioos:station:wmo:42046:1,2008-12-01T10:00:00Z,27.8903,-94.0367,4.0,9.422908256,316.7199678,13.04,'11111222,11111222,11111222' 
TABS,ioos:station:wmo:42046:1,2008-12-01T10:30:00Z,27.8903,-94.0367,4.0,8.860524815,314.4054681,11.91,'11111222,11111222,11111222' 
TABS,ioos:station:wmo:42046:1,2008-12-01T11:00:00Z,27.8903,-94.0367,4.0,9.7213425,302.2677007,13.01,'11111222,11111222,11111222' 
TABS,ioos:station:wmo:42046:1,2008-12-01T11:30:00Z,27.8903,-94.0367,4.0,11.58407959,289.04491,16.26,'11111222,11111222,11111222' 
TABS,ioos:station:wmo:42046:1,2008-12-01T12:00:00Z,27.8903,-94.0367,4.0,10.58208392,286.8081124,14.12,'11111222,11111222,11111222' 
TABS,ioos:station:wmo:42046:1,2008-12-01T12:30:00Z,27.8903,-94.0367,4.0,11.63718179,288.4349057,15.51,'11111222,11111222,11111222' 
TABS,ioos:station:wmo:42046:1,2008-12-01T13:00:00Z,27.8903,-94.0367,4.0,10.04442134,307.3946075,12.94,'11111222,11111222,11111222' 
TABS,ioos:station:wmo:42046:1,2008-12-01T13:30:00Z,27.8903,-94.0367,4.0,9.320085837,306.6239089,13.87,'11111222,11111222,11111222' 
TABS,ioos:station:wmo:42046:1,2008-12-01T14:00:00Z,27.8903,-94.0367,4.0,7.137618651,305.649573,10.32,'11111222,11111222,11111222' 
TABS,ioos:station:wmo:42046:1,2008-12-01T14:30:00Z,27.8903,-94.0367,4.0,9.383522793,300.199229,12.78,'11111222,11111222,11111222' 
TABS,ioos:station:wmo:42046:1,2008-12-01T15:00:00Z,27.8903,-94.0367,4.0,9.298134221,299.1562833,12.13,'11111222,11111222,11111222' 
TABS,ioos:station:wmo:42046:1,2008-12-01T15:30:00Z,27.8903,-94.0367,4.0,9.682298281,307.3195511,13.38,'11111222,11111222,11111222' 
TABS,ioos:station:wmo:42046:1,2008-12-01T16:00:00Z,27.8903,-94.0367,4.0,9.366093102,305.6584864,12.03,'11111222,11111222,11111222' 
TABS,ioos:station:wmo:42046:1,2008-12-01T16:30:00Z,27.8903,-94.0367,4.0,9.082774906,300.5742182,11.81,'11111222,11111222,11111222' 
TABS,ioos:station:wmo:42046:1,2008-12-01T17:00:00Z,27.8903,-94.0367,4.0,8.905649892,293.7729941,12.42,'11111222,11111222,11111222' 
TABS,ioos:station:wmo:42046:1,2008-12-01T17:30:00Z,27.8903,-94.0367,4.0,9.001249913,299.555327,11.57,'11111222,11111222,11111222' 
TABS,ioos:station:wmo:42046:1,2008-12-01T18:00:00Z,27.8903,-94.0367,4.0,9.914807109,310.5823957,13.01,'11111222,11111222,11111222' 
TABS,ioos:station:wmo:42046:1,2008-12-01T18:30:00Z,27.8903,-94.0367,4.0,8.359928229,304.3743103,11.56,'11111222,11111222,11111222' 
TABS,ioos:station:wmo:42046:1,2008-12-01T19:00:00Z,27.8903,-94.0367,4.0,9.179466215,310.4048666,14.33,'11111222,11111222,11111222' 
TABS,ioos:station:wmo:42046:1,2008-12-01T19:30:00Z,27.8903,-94.0367,4.0,8.826924719,311.5094606,12.48,'11111222,11111222,11111222' 
TABS,ioos:station:wmo:42046:1,2008-12-01T20:00:00Z,27.8903,-94.0367,4.0,9.6,306.8698114,13.24,'11111222,11111222,11111222' 
TABS,ioos:station:wmo:42046:1,2008-12-01T20:30:00Z,27.8903,-94.0367,4.0,8.428196723,299.5761716,11.64,'11111222,11111222,11111222' 
TABS,ioos:station:wmo:42046:1,2008-12-01T21:00:00Z,27.8903,-94.0367,4.0,9.572089636,299.2696482,12.85,'11111222,11111222,11111222' 
TABS,ioos:station:wmo:42046:1,2008-12-01T21:30:00Z,27.8903,-94.0367,4.0,9.30376268,295.4632855,13.86,'11111222,11111222,11111222' 
TABS,ioos:station:wmo:42046:1,2008-12-01T22:00:00Z,27.8903,-94.0367,4.0,9.185755277,294.7794391,12.61,'11111222,11111222,11111222' 
TABS,ioos:station:wmo:42046:1,2008-12-01T22:30:00Z,27.8903,-94.0367,4.0,8.639102963,301.7030151,12.57,'11111222,11111222,11111222' 
TABS,ioos:station:wmo:42046:1,2008-12-01T23:00:00Z,27.8903,-94.0367,4.0,8.255452743,304.787251,11.97,'11111222,11111222,11111222' 
TABS,ioos:station:wmo:42046:1,2008-12-01T23:30:00Z,27.8903,-94.0367,4.0,7.848796086,310.1419575,10.57,'11111222,11111222,11111222' 
TABS,ioos:station:wmo:42046:1,2008-12-02T00:00:00Z,27.8903,-94.0367,4.0,9.421167656,304.9720095,13.24,'11111222,11111222,11111222' 
TABS,ioos:station:wmo:42046:1,2008-12-02T00:30:00Z,27.8903,-94.0367,4.0,9.964000201,306.881312,13.01,'11111222,11111222,11111222' 
TABS,ioos:station:wmo:42046:1,2008-12-02T01:00:00Z,27.8903,-94.0367,4.0,9.844643213,316.0699476,13.44,'11111222,11111222,11111222' 
TABS,ioos:station:wmo:42046:1,2008-12-02T01:30:00Z,27.8903,-94.0367,4.0,10.04215614,322.8104678,15.91,'11111222,11111222,11111222' 
TABS,ioos:station:wmo:42046:1,2008-12-02T02:00:00Z,27.8903,-94.0367,4.0,9.426027795,318.8711419,12.99,'11111222,11111222,11111222' 
TABS,ioos:station:wmo:42046:1,2008-12-02T02:30:00Z,27.8903,-94.0367,4.0,9.309570345,320.2731117,13.91,'11111222,11111222,11111222' 
TABS,ioos:station:wmo:42046:1,2008-12-02T03:00:00Z,27.8903,-94.0367,4.0,8.802459883,327.5736031,12.5,'11111222,11111222,11111222' 
TABS,ioos:station:wmo:42046:1,2008-12-02T03:30:00Z,27.8903,-94.0367,4.0,8.382869437,353.5614908,11.6,'11111222,11111222,11111222' 
TABS,ioos:station:wmo:42046:1,2008-12-02T04:00:00Z,27.8903,-94.0367,4.0,7.760238398,8.745931352,10.37,'11111222,11111222,11111222' 
TABS,ioos:station:wmo:42046:1,2008-12-02T04:30:00Z,27.8903,-94.0367,4.0,6.730007429,359.9146549,9.05,'11111222,11144222,11111222' 
TABS,ioos:station:wmo:42046:1,2008-12-02T05:00:00Z,27.8903,-94.0367,4.0,6.405973775,343.1206794,9.13,'11111222,11111222,11111222' 
TABS,ioos:station:wmo:42046:1,2008-12-02T05:30:00Z,27.8903,-94.0367,4.0,6.22945423,353.5478857,8.78,'11111222,11111222,11111222' 
TABS,ioos:station:wmo:42046:1,2008-12-02T06:00:00Z,27.8903,-94.0367,4.0,5.03167964,1.48026194,7.92,'11111222,11111222,11111222' 
TABS,ioos:station:wmo:42046:1,2008-12-02T06:30:00Z,27.8903,-94.0367,4.0,4.799885415,339.6393876,7.4,'11111222,11111222,11111222' 
TABS,ioos:station:wmo:42046:1,2008-12-02T07:00:00Z,27.8903,-94.0367,4.0,3.849844153,325.6906356,6.37,'11111222,11111222,11111222' 
TABS,ioos:station:wmo:42046:1,2008-12-02T07:30:00Z,27.8903,-94.0367,4.0,4.558705957,334.9525832,7.88,'11111222,11111222,11111222' 
TABS,ioos:station:wmo:42046:1,2008-12-02T08:00:00Z,27.8903,-94.0367,4.0,2.832543027,2.427832369,4.88,'11111222,11111222,11111222' 
TABS,ioos:station:wmo:42046:1,2008-12-02T08:30:00Z,27.8903,-94.0367,4.0,3.853894135,351.3440728,6.52,'11111222,11111222,11111222' 
TABS,ioos:station:wmo:42046:1,2008-12-02T09:00:00Z,27.8903,-94.0367,4.0,2.531422525,62.72602276,4.58,'11111222,11111222,11111222' 
TABS,ioos:station:wmo:42046:1,2008-12-02T09:30:00Z,27.8903,-94.0367,4.0,3.153363284,17.34293447,4.96,'11111222,11111222,11111222' 
TABS,ioos:station:wmo:42046:1,2008-12-02T10:00:00Z,27.8903,-94.0367,4.0,2.105445321,13.17794983,4.05,'11111222,11111222,11111222' 
TABS,ioos:station:wmo:42046:1,2008-12-02T10:30:00Z,27.8903,-94.0367,4.0,2.226117697,58.59448886,3.6,'11111222,11111222,11111222' 
TABS,ioos:station:wmo:42046:1,2008-12-02T11:00:00Z,27.8903,-94.0367,4.0,1.807595087,59.03589496,3.21,'11111222,11111222,11111222' 
TABS,ioos:station:wmo:42046:1,2008-12-02T11:30:00Z,27.8903,-94.0367,4.0,1.332816567,25.79575571,2.43,'11111222,11111222,11111222' 
TABS,ioos:station:wmo:42046:1,2008-12-02T12:00:00Z,27.8903,-94.0367,4.0,1.17,90.00042092,3.4,'11111222,11111222,11111222' 
TABS,ioos:station:wmo:42046:1,2008-12-02T12:30:00Z,27.8903,-94.0367,4.0,1.694992625,99.85172522,3.89,'11111222,11111222,11111222' 
TABS,ioos:station:wmo:42046:1,2008-12-02T13:00:00Z,27.8903,-94.0367,4.0,2.624823804,113.3422677,4.64,'11111222,11111222,11111222' 
TABS,ioos:station:wmo:42046:1,2008-12-02T13:30:00Z,27.8903,-94.0367,4.0,2.753924472,137.7965954,4.5,'11111222,11111222,11111222' 
TABS,ioos:station:wmo:42046:1,2008-12-02T14:00:00Z,27.8903,-94.0367,4.0,3.132315437,122.2190116,5.28,'11111222,11111222,11111222' 
TABS,ioos:station:wmo:42046:1,2008-12-02T14:30:00Z,27.8903,-94.0367,4.0,4.235150529,123.5403232,6.18,'11111222,11111222,11111222' 
TABS,ioos:station:wmo:42046:1,2008-12-02T15:00:00Z,27.8903,-94.0367,4.0,4.433294486,121.2522432,5.88,'11111222,11111222,11111222' 
TABS,ioos:station:wmo:42046:1,2008-12-02T15:30:00Z,27.8903,-94.0367,4.0,4.528156358,133.0315531,6.52,'11111222,11111222,11111222' 
TABS,ioos:station:wmo:42046:1,2008-12-02T16:00:00Z,27.8903,-94.0367,4.0,4.762992757,129.975321,6.46,'11111222,11111222,11111222' 
TABS,ioos:station:wmo:42046:1,2008-12-02T16:30:00Z,27.8903,-94.0367,4.0,4.639935344,141.4754871,6.87,'11111222,11111222,11111222' 
TABS,ioos:station:wmo:42046:1,2008-12-02T17:00:00Z,27.8903,-94.0367,4.0,4.42404792,146.9927081,5.96,'11111222,11111222,11111222' 
TABS,ioos:station:wmo:42046:1,2008-12-02T17:30:00Z,27.8903,-94.0367,4.0,4.92585018,145.9230949,6.95,'11111222,11111222,11111222' 
TABS,ioos:station:wmo:42046:1,2008-12-02T18:00:00Z,27.8903,-94.0367,4.0,4.784401739,155.685156,6.83,'11111222,11111222,11111222' 
TABS,ioos:station:wmo:42046:1,2008-12-02T18:30:00Z,27.8903,-94.0367,4.0,4.02631345,159.0444827,5.78,'11111222,11111222,11111222' 
TABS,ioos:station:wmo:42046:1,2008-12-02T19:00:00Z,27.8903,-94.0367,4.0,4.479464254,169.1920048,6.31,'11111222,11111222,11111222' 
TABS,ioos:station:wmo:42046:1,2008-12-02T19:30:00Z,27.8903,-94.0367,4.0,4.787086797,164.367221,7.08,'11111222,11111222,11111222' 
TABS,ioos:station:wmo:42046:1,2008-12-02T20:00:00Z,27.8903,-94.0367,4.0,5.035871325,173.157453,6.88,'11111222,11111222,11111222' 
TABS,ioos:station:wmo:42046:1,2008-12-02T20:30:00Z,27.8903,-94.0367,4.0,5.418680651,170.8681911,7.47,'11111222,11111222,11111222' 
TABS,ioos:station:wmo:42046:1,2008-12-02T21:00:00Z,27.8903,-94.0367,4.0,6.134044343,169.954378,8.92,'11111222,11111222,11111222' 
TABS,ioos:station:wmo:42046:1,2008-12-02T21:30:00Z,27.8903,-94.0367,4.0,5.932866086,169.315323,7.57,'11111222,11111222,11111222' 
TABS,ioos:station:wmo:42046:1,2008-12-02T22:00:00Z,27.8903,-94.0367,4.0,6.231572835,165.0273697,7.99,'11111222,11111222,11111222' 
TABS,ioos:station:wmo:42046:1,2008-12-02T22:30:00Z,27.8903,-94.0367,4.0,7.206691335,163.2248548,9.31,'11111222,11111222,11111222' 
TABS,ioos:station:wmo:42046:1,2008-12-02T23:00:00Z,27.8903,-94.0367,4.0,7.296362107,165.0688282,9.4,'11111222,11111222,11111222' 
TABS,ioos:station:wmo:42046:1,2008-12-02T23:30:00Z,27.8903,-94.0367,4.0,7.557565746,165.5962536,10.21,'11111222,11111222,11111222' 
TABS,ioos:station:wmo:42046:1,2008-12-03T00:00:00Z,27.8903,-94.0367,4.0,7.543374576,162.6462264,10.14,'11111222,11111222,11111222' 
TABS,ioos:station:wmo:42046:1,2008-12-03T00:30:00Z,27.8903,-94.0367,4.0,8.20217654,158.0950791,11.28,'11111222,11111222,11111222' 
TABS,ioos:station:wmo:42046:1,2008-12-03T01:00:00Z,27.8903,-94.0367,4.0,7.874642849,162.2555803,9.37,'11111222,11111222,11111222' 
TABS,ioos:station:wmo:42046:1,2008-12-03T01:30:00Z,27.8903,-94.0367,4.0,8.111670605,168.1916122,10.45,'11111222,11111222,11111222' 
TABS,ioos:station:wmo:42046:1,2008-12-03T02:00:00Z,27.8903,-94.0367,4.0,8.40572424,164.7570839,10.95,'11111222,11111222,11111222' 
TABS,ioos:station:wmo:42046:1,2008-12-03T02:30:00Z,27.8903,-94.0367,4.0,8.461022397,164.9292426,10.72,'11111222,11111222,11111222' 
TABS,ioos:station:wmo:42046:1,2008-12-03T03:00:00Z,27.8903,-94.0367,4.0,8.569859976,165.0559083,10.72,'11111222,11111222,11111222' 
TABS,ioos:station:wmo:42046:1,2008-12-03T03:30:00Z,27.8903,-94.0367,4.0,8.968801481,164.6778922,11.32,'11111222,11111222,11111222' 
TABS,ioos:station:wmo:42046:1,2008-12-03T04:00:00Z,27.8903,-94.0367,4.0,8.978000891,163.7655709,11.95,'11111222,11111222,11111222' 
TABS,ioos:station:wmo:42046:1,2008-12-03T04:30:00Z,27.8903,-94.0367,4.0,9.555982419,166.1966712,12.17,'11111222,11111222,11111222' 
TABS,ioos:station:wmo:42046:1,2008-12-03T05:00:00Z,27.8903,-94.0367,4.0,9.645916234,165.5318055,12.65,'11111222,11111222,11111222' 
TABS,ioos:station:wmo:42046:1,2008-12-03T05:30:00Z,27.8903,-94.0367,4.0,10.10269766,169.3910316,13.29,'11111222,11111222,11111222' 
TABS,ioos:station:wmo:42046:1,2008-12-03T06:00:00Z,27.8903,-94.0367,4.0,9.997384658,165.7555013,12.34,'11111222,11111222,11111222' 
TABS,ioos:station:wmo:42046:1,2008-12-03T06:30:00Z,27.8903,-94.0367,4.0,9.817219566,163.8544341,12.2,'11111222,11111222,11111222' 
TABS,ioos:station:wmo:42046:1,2008-12-03T07:00:00Z,27.8903,-94.0367,4.0,9.975670404,164.6544539,12.21,'11111222,11111222,11111222' 
TABS,ioos:station:wmo:42046:1,2008-12-03T07:30:00Z,27.8903,-94.0367,4.0,9.900505038,166.3289353,12.44,'11111222,11111222,11111222' 
TABS,ioos:station:wmo:42046:1,2008-12-03T08:00:00Z,27.8903,-94.0367,4.0,9.946356117,167.2215072,12.35,'11111222,11111222,11111222' 
TABS,ioos:station:wmo:42046:1,2008-12-03T08:30:00Z,27.8903,-94.0367,4.0,10.1646692,165.9366576,12.73,'11111222,11111222,11111222' 
TABS,ioos:station:wmo:42046:1,2008-12-03T09:00:00Z,27.8903,-94.0367,4.0,10.342345,170.483265,12.73,'11111222,11111222,11111222' 
TABS,ioos:station:wmo:42046:1,2008-12-03T09:30:00Z,27.8903,-94.0367,4.0,9.86927049,167.3580877,12.33,'11111222,11111222,11111222' 
TABS,ioos:station:wmo:42046:1,2008-12-03T10:00:00Z,27.8903,-94.0367,4.0,9.432550026,164.0631955,11.84,'11111222,11111222,11111222' 
TABS,ioos:station:wmo:42046:1,2008-12-03T10:30:00Z,27.8903,-94.0367,4.0,9.812120056,166.9837405,12.74,'11111222,11111222,11111222' 
TABS,ioos:station:wmo:42046:1,2008-12-03T11:00:00Z,27.8903,-94.0367,4.0,10.01141848,162.9227674,12.58,'11111222,11111222,11111222' 
TABS,ioos:station:wmo:42046:1,2008-12-03T11:30:00Z,27.8903,-94.0367,4.0,9.571525479,165.1073877,12.15,'11111222,11111222,11111222' 
TABS,ioos:station:wmo:42046:1,2008-12-03T12:00:00Z,27.8903,-94.0367,4.0,9.928393626,164.9981984,12.24,'11111222,11111222,11111222' 
TABS,ioos:station:wmo:42046:1,2008-12-03T12:30:00Z,27.8903,-94.0367,4.0,10.01187795,165.8946011,13.03,'11111222,11111222,11111222' 
TABS,ioos:station:wmo:42046:1,2008-12-03T13:00:00Z,27.8903,-94.0367,4.0,9.974813281,163.2184785,12.84,'11111222,11111222,11111222' 
TABS,ioos:station:wmo:42046:1,2008-12-03T13:30:00Z,27.8903,-94.0367,4.0,9.999809998,166.1724478,12.77,'11111222,11111222,11111222' 
TABS,ioos:station:wmo:42046:1,2008-12-03T14:00:00Z,27.8903,-94.0367,4.0,10.14965024,164.2797219,12.86,'11111222,11111222,11111222' 
TABS,ioos:station:wmo:42046:1,2008-12-03T14:30:00Z,27.8903,-94.0367,4.0,10.31947673,164.8327801,13.37,'11111222,11111222,11111222' 
TABS,ioos:station:wmo:42046:1,2008-12-03T15:00:00Z,27.8903,-94.0367,4.0,10.45328656,165.9374125,13.21,'11111222,11111222,11111222' 
TABS,ioos:station:wmo:42046:1,2008-12-03T15:30:00Z,27.8903,-94.0367,4.0,10.73760215,163.7763284,13.72,'11111222,11111222,11111222' 
TABS,ioos:station:wmo:42046:1,2008-12-03T16:00:00Z,27.8903,-94.0367,4.0,10.89723359,165.7089574,14.19,'11111222,11111222,11111222' 
TABS,ioos:station:wmo:42046:1,2008-12-03T16:30:00Z,27.8903,-94.0367,4.0,10.49573723,166.8378661,13.31,'11111222,11111222,11111222' 
TABS,ioos:station:wmo:42046:1,2008-12-03T17:00:00Z,27.8903,-94.0367,4.0,10.69860271,169.2259585,13.36,'11111222,11111222,11111222' 
TABS,ioos:station:wmo:42046:1,2008-12-03T17:30:00Z,27.8903,-94.0367,4.0,10.37559637,164.7451274,12.78,'11111222,11111222,11111222' 
TABS,ioos:station:wmo:42046:1,2008-12-03T18:00:00Z,27.8903,-94.0367,4.0,9.652077497,170.1573113,12.51,'11111222,11111222,11111222' 
TABS,ioos:station:wmo:42046:1,2008-12-03T18:30:00Z,27.8903,-94.0367,4.0,9.822672752,164.1670233,12.38,'11111222,11111222,11111222' 
TABS,ioos:station:wmo:42046:1,2008-12-03T19:00:00Z,27.8903,-94.0367,4.0,9.576481609,162.4356472,12.41,'11111222,11111222,11111222' 
TABS,ioos:station:wmo:42046:1,2008-12-03T19:30:00Z,27.8903,-94.0367,4.0,10.0284595,163.1915581,12.91,'11111222,11111222,11111222' 
TABS,ioos:station:wmo:42046:1,2008-12-03T20:00:00Z,27.8903,-94.0367,4.0,10.32143401,164.3751063,12.74,'11111222,11111222,11111222' 
TABS,ioos:station:wmo:42046:1,2008-12-03T20:30:00Z,27.8903,-94.0367,4.0,10.33284569,162.5999162,12.6,'11111222,11111222,11111222' 
TABS,ioos:station:wmo:42046:1,2008-12-03T21:00:00Z,27.8903,-94.0367,4.0,9.826220026,167.9584238,12.18,'11111222,11111222,11111222' 
TABS,ioos:station:wmo:42046:1,2008-12-03T21:30:00Z,27.8903,-94.0367,4.0,10.08645131,167.0524586,12.26,'11111222,11111222,11111222' 
TABS,ioos:station:wmo:42046:1,2008-12-03T22:00:00Z,27.8903,-94.0367,4.0,10.4509234,165.7645495,13.17,'11111222,11111222,11111222' 
TABS,ioos:station:wmo:42046:1,2008-12-03T22:30:00Z,27.8903,-94.0367,4.0,10.68868561,161.9043283,13.36,'11111222,11111222,11111222' 
TABS,ioos:station:wmo:42046:1,2008-12-03T23:00:00Z,27.8903,-94.0367,4.0,10.40707932,161.6871731,13.66,'11111222,11111222,11111222' 
TABS,ioos:station:wmo:42046:1,2008-12-03T23:30:00Z,27.8903,-94.0367,4.0,10.40480658,166.0975559,12.93,'11111222,11111222,11111222' 
TABS,ioos:station:wmo:42046:1,2008-12-04T00:00:00Z,27.8903,-94.0367,4.0,10.72835495,162.6462264,13.23,'11111222,11111222,11111222' 
TABS,ioos:station:wmo:42046:1,2008-12-04T00:30:00Z,27.8903,-94.0367,4.0,10.87047377,165.836165,13.42,'11111222,11111222,11111222' 
TABS,ioos:station:wmo:42046:1,2008-12-04T01:00:00Z,27.8903,-94.0367,4.0,10.54552038,166.1748384,13.24,'11111222,11111222,11111222' 
TABS,ioos:station:wmo:42046:1,2008-12-04T01:30:00Z,27.8903,-94.0367,4.0,9.976141539,165.3093005,12.42,'11111222,11111222,11111222' 
TABS,ioos:station:wmo:42046:1,2008-12-04T02:00:00Z,27.8903,-94.0367,4.0,9.9617117,167.8894133,13.29,'11111222,11111222,11111222' 
TABS,ioos:station:wmo:42046:1,2008-12-04T02:30:00Z,27.8903,-94.0367,4.0,9.834490327,172.0513897,13.12,'11111222,11111222,11111222' 
TABS,ioos:station:wmo:42046:1,2008-12-04T03:00:00Z,27.8903,-94.0367,4.0,9.914696163,173.9791194,12.74,'11111222,11111222,11111222' 
TABS,ioos:station:wmo:42046:1,2008-12-04T03:30:00Z,27.8903,-94.0367,4.0,9.735486634,172.8606113,13.24,'11111222,11111222,11111222' 
TABS,ioos:station:wmo:42046:1,2008-12-04T04:00:00Z,27.8903,-94.0367,4.0,10.4944795,175.3544627,13.03,'11111222,11111222,11111222' 
TABS,ioos:station:wmo:42046:1,2008-12-04T04:30:00Z,27.8903,-94.0367,4.0,10.66064257,174.995562,13.78,'11111222,11111222,11111222' 
TABS,ioos:station:wmo:42046:1,2008-12-04T05:00:00Z,27.8903,-94.0367,4.0,10.03795298,174.3975426,13.03,'11111222,11111222,11111222' 
TABS,ioos:station:wmo:42046:1,2008-12-04T05:30:00Z,27.8903,-94.0367,4.0,10.36660504,177.9548068,12.84,'11111222,11111222,11111222' 
TABS,ioos:station:wmo:42046:1,2008-12-04T06:00:00Z,27.8903,-94.0367,4.0,10.09642016,182.0435887,13.2,'11111222,11111222,11111222' 
TABS,ioos:station:wmo:42046:1,2008-12-04T06:30:00Z,27.8903,-94.0367,4.0,10.01511358,181.8312159,12.4,'11111222,11111222,11111222' 
TABS,ioos:station:wmo:42046:1,2008-12-04T07:00:00Z,27.8903,-94.0367,4.0,9.332700574,186.6454731,12.33,'11111222,11111222,11111222' 
TABS,ioos:station:wmo:42046:1,2008-12-04T07:30:00Z,27.8903,-94.0367,4.0,9.95535032,184.0899181,12.54,'11111222,11111222,11111222' 
TABS,ioos:station:wmo:42046:1,2008-12-04T08:00:00Z,27.8903,-94.0367,4.0,9.67504522,187.6026628,12.28,'11111222,11111222,11111222' 
TABS,ioos:station:wmo:42046:1,2008-12-04T08:30:00Z,27.8903,-94.0367,4.0,9.338029771,189.1195477,12.03,'11111222,11111222,11111222' 
TABS,ioos:station:wmo:42046:1,2008-12-04T09:00:00Z,27.8903,-94.0367,4.0,8.704630951,193.8927433,11.16,'11111222,11111222,11111222' 
TABS,ioos:station:wmo:42046:1,2008-12-04T09:30:00Z,27.8903,-94.0367,4.0,8.337871431,192.1861284,10.21,'11111222,11111222,11111222' 
TABS,ioos:station:wmo:42046:1,2008-12-04T10:00:00Z,27.8903,-94.0367,4.0,7.009086959,321.4294365,14.45,'11111222,11111222,11111222' 
TABS,ioos:station:wmo:42046:1,2008-12-04T10:30:00Z,27.8903,-94.0367,4.0,10.53767052,347.0581829,13.54,'11111222,11111222,11111222' 
TABS,ioos:station:wmo:42046:1,2008-12-04T11:00:00Z,27.8903,-94.0367,4.0,9.582071801,356.1101515,12.5,'11111222,11111222,11111222' 
TABS,ioos:station:wmo:42046:1,2008-12-04T11:30:00Z,27.8903,-94.0367,4.0,9.247296902,355.5963424,11.59,'11111222,11111222,11111222' 
TABS,ioos:station:wmo:42046:1,2008-12-04T12:00:00Z,27.8903,-94.0367,4.0,9.500678923,354.0791827,12.43,'11111222,11111222,11111222' 
TABS,ioos:station:wmo:42046:1,2008-12-04T12:30:00Z,27.8903,-94.0367,4.0,9.276987658,2.223745581,12.23,'11111222,11111222,11111222' 
TABS,ioos:station:wmo:42046:1,2008-12-04T13:00:00Z,27.8903,-94.0367,4.0,8.225843422,2.159550699,10.44,'11111222,11111222,11111222' 
TABS,ioos:station:wmo:42046:1,2008-12-04T13:30:00Z,27.8903,-94.0367,4.0,8.188821649,2.659533263,10.49,'11111222,11111222,11111222' 
TABS,ioos:station:wmo:42046:1,2008-12-04T14:00:00Z,27.8903,-94.0367,4.0,8.553093008,358.4588748,10.93,'11111222,11111222,11111222' 
TABS,ioos:station:wmo:42046:1,2008-12-04T14:30:00Z,27.8903,-94.0367,4.0,8.448224666,4.68457034,10.81,'11111222,11111222,11111222' 
TABS,ioos:station:wmo:42046:1,2008-12-04T15:00:00Z,27.8903,-94.0367,4.0,8.299596376,3.937841993,10.81,'11111222,11111222,11111222' 
TABS,ioos:station:wmo:42046:1,2008-12-04T15:30:00Z,27.8903,-94.0367,4.0,7.955124135,10.57517625,10.4,'11111222,11111222,11111222' 
TABS,ioos:station:wmo:42046:1,2008-12-04T16:00:00Z,27.8903,-94.0367,4.0,8.263485947,1.664085814,10.82,'11111222,11111222,11111222' 
TABS,ioos:station:wmo:42046:1,2008-12-04T16:30:00Z,27.8903,-94.0367,4.0,8.120418708,14.54938829,10.71,'11111222,11111222,11111222' 
TABS,ioos:station:wmo:42046:1,2008-12-04T17:00:00Z,27.8903,-94.0367,4.0,8.239690528,9.359204496,11.04,'11111222,11111222,11111222' 
TABS,ioos:station:wmo:42046:1,2008-12-04T17:30:00Z,27.8903,-94.0367,4.0,7.821304239,10.90742583,10.33,'11111222,11111222,11111222' 
TABS,ioos:station:wmo:42046:1,2008-12-04T18:00:00Z,27.8903,-94.0367,4.0,7.623312928,6.779863542,10.21,'11111222,11111222,11111222' 